| time (UTC) | temp C | wind direction | speed KPH | gust KPH | rain 1hr cm | rain 24hr cm | rain mn cm | humidity % | barometer mb |
| 20260507221003 | 1 | 63 | 0.0 | 1.6 | 0.00 | 0.00 | 0.00 | 71 | 1019.9 |
| 20260507220503 | 2 | 51 | 0.0 | 3.2 | 0.00 | 0.00 | 0.00 | 70 | 1020.0 |
| 20260507220004 | 2 | 64 | 0.0 | 3.2 | 0.00 | 0.00 | 0.00 | 68 | 1019.9 |
| 20260507215714 | 2 | 71 | 0.0 | 3.2 | 0.00 | 0.00 | 0.00 | 69 | 1019.9 |
| 20260507215003 | 2 | 55 | 0.0 | 4.8 | 0.00 | 0.00 | 0.00 | 69 | 1020.0 |
| 20260507214503 | 3 | 49 | 0.0 | 4.8 | 0.00 | 0.00 | 0.00 | 66 | 1020.0 |
| 20260507214003 | 3 | 36 | 1.6 | 4.8 | 0.00 | 0.00 | 0.00 | 68 | 1020.0 |
| 20260507213713 | 3 | 29 | 1.6 | 4.8 | 0.00 | 0.00 | 0.00 | 70 | 1020.1 |
| 20260507213003 | 2 | 22 | 3.2 | 4.8 | 0.00 | 0.00 | 0.00 | 67 | 1019.9 |
| 20260507212503 | 3 | 34 | 1.6 | 3.2 | 0.00 | 0.00 | 0.00 | 66 | 1019.8 |
| 20260507212003 | 3 | 82 | 0.0 | 3.2 | 0.00 | 0.00 | 0.00 | 64 | 1019.8 |
| 20260507211713 | 3 | 97 | 0.0 | 3.2 | 0.00 | 0.00 | 0.00 | 64 | 1019.8 |
| 20260507211003 | 3 | 85 | 0.0 | 3.2 | 0.00 | 0.00 | 0.00 | 64 | 1019.6 |
| 20260507210713 | 3 | 88 | 0.0 | 3.2 | 0.00 | 0.00 | 0.00 | 64 | 1019.6 |
| 20260507210003 | 3 | 102 | 0.0 | 3.2 | 0.00 | 0.00 | 0.00 | 64 | 1019.4 |
| 20260507205503 | 3 | 89 | 1.6 | 4.8 | 0.00 | 0.00 | 0.00 | 63 | 1019.5 |
| 20260507205003 | 3 | 60 | 1.6 | 4.8 | 0.00 | 0.00 | 0.00 | 61 | 1019.4 |
| 20260507204503 | 4 | 61 | 0.0 | 4.8 | 0.00 | 0.00 | 0.00 | 58 | 1019.4 |
| 20260507204003 | 4 | 203 | 0.0 | 3.2 | 0.00 | 0.00 | 0.00 | 58 | 1019.4 |
| 20260507203503 | 4 | 234 | 0.0 | 3.2 | 0.00 | 0.00 | 0.00 | 58 | 1019.2 |
| 20260507203003 | 4 | 231 | 1.6 | 3.2 | 0.00 | 0.00 | 0.00 | 59 | 1019.1 |
| 20260507202713 | 5 | 221 | 0.0 | 3.2 | 0.00 | 0.00 | 0.00 | 59 | 1019.1 |
| 20260507202003 | 5 | 216 | 1.6 | 4.8 | 0.00 | 0.00 | 0.00 | 57 | 1019.0 |
| 20260507201503 | 5 | 211 | 1.6 | 4.8 | 0.00 | 0.00 | 0.00 | 56 | 1019.0 |
| 20260507201003 | 6 | 197 | 1.6 | 3.2 | 0.00 | 0.00 | 0.00 | 54 | 1019.1 |
| 20260507200713 | 6 | 189 | 0.0 | 3.2 | 0.00 | 0.00 | 0.00 | 52 | 1019.0 |
| 20260507200003 | 7 | 191 | 0.0 | 1.6 | 0.00 | 0.00 | 0.00 | 48 | 1018.9 |
| 20260507195713 | 7 | 110 | 0.0 | 1.6 | 0.00 | 0.00 | 0.00 | 46 | 1018.7 |
| 20260507195003 | 7 | 51 | 0.0 | 3.2 | 0.00 | 0.00 | 0.00 | 44 | 1018.6 |
| 20260507194503 | 7 | 19 | 0.0 | 3.2 | 0.00 | 0.00 | 0.00 | 42 | 1018.5 |
| 20260507194003 | 8 | 56 | 0.0 | 3.2 | 0.00 | 0.00 | 0.00 | 42 | 1018.5 |
| 20260507193503 | 8 | 49 | 1.6 | 3.2 | 0.00 | 0.00 | 0.00 | 39 | 1018.5 |
| 20260507193003 | 9 | 30 | 1.6 | 4.8 | 0.00 | 0.00 | 0.00 | 38 | 1018.4 |
| 20260507192503 | 9 | 16 | 3.2 | 4.8 | 0.00 | 0.00 | 0.00 | 36 | 1018.3 |
| 20260507192003 | 10 | 4 | 3.2 | 6.4 | 0.00 | 0.00 | 0.00 | 35 | 1018.2 |
| 20260507191503 | 10 | 350 | 3.2 | 6.4 | 0.00 | 0.00 | 0.00 | 34 | 1018.2 |
| 20260507191003 | 10 | 355 | 4.8 | 9.7 | 0.00 | 0.00 | 0.00 | 33 | 1018.2 |
| 20260507190713 | 10 | 358 | 4.8 | 9.7 | 0.00 | 0.00 | 0.00 | 33 | 1018.2 |
| 20260507190004 | 10 | 6 | 4.8 | 9.7 | 0.00 | 0.00 | 0.00 | 33 | 1018.0 |
| 20260507185503 | 11 | 14 | 4.8 | 11.3 | 0.00 | 0.00 | 0.00 | 32 | 1018.0 |
| 20260507185003 | 11 | 21 | 6.4 | 11.3 | 0.00 | 0.00 | 0.00 | 32 | 1017.9 |
| 20260507184503 | 11 | 21 | 4.8 | 9.7 | 0.00 | 0.00 | 0.00 | 31 | 1017.9 |
| 20260507184003 | 11 | 15 | 3.2 | 9.7 | 0.00 | 0.00 | 0.00 | 31 | 1017.6 |
| 20260507183503 | 11 | 11 | 3.2 | 6.4 | 0.00 | 0.00 | 0.00 | 31 | 1017.6 |
| 20260507183003 | 12 | 13 | 4.8 | 9.7 | 0.00 | 0.00 | 0.00 | 30 | 1017.6 |
| 20260507182712 | 12 | 14 | 4.8 | 9.7 | 0.00 | 0.00 | 0.00 | 30 | 1017.5 |
| 20260507182003 | 12 | 350 | 6.4 | 9.7 | 0.00 | 0.00 | 0.00 | 29 | 1017.6 |
| 20260507181714 | 12 | 347 | 6.4 | 11.3 | 0.00 | 0.00 | 0.00 | 28 | 1017.6 |
| 20260507181213 | 12 | 352 | 6.4 | 12.9 | 0.00 | 0.00 | 0.00 | 28 | 1017.4 |
| 20260507180503 | 12 | 349 | 6.4 | 12.9 | 0.00 | 0.00 | 0.00 | 28 | 1017.6 |
| 20260507180213 | 12 | 351 | 4.8 | 11.3 | 0.00 | 0.00 | 0.00 | 28 | 1017.3 |
| 20260507175503 | 12 | 343 | 4.8 | 9.7 | 0.00 | 0.00 | 0.00 | 28 | 1017.4 |
| 20260507175003 | 12 | 317 | 4.8 | 9.7 | 0.00 | 0.00 | 0.00 | 28 | 1017.4 |
| 20260507174503 | 13 | 290 | 4.8 | 9.7 | 0.00 | 0.00 | 0.00 | 27 | 1017.3 |
| 20260507174213 | 13 | 301 | 4.8 | 9.7 | 0.00 | 0.00 | 0.00 | 27 | 1017.3 |
| 20260507173503 | 13 | 301 | 4.8 | 11.3 | 0.00 | 0.00 | 0.00 | 27 | 1017.1 |
| 20260507173003 | 13 | 300 | 6.4 | 11.3 | 0.00 | 0.00 | 0.00 | 26 | 1017.2 |
| 20260507172504 | 13 | 292 | 6.4 | 11.3 | 0.00 | 0.00 | 0.00 | 26 | 1017.1 |
| 20260507172003 | 13 | 280 | 4.8 | 9.7 | 0.00 | 0.00 | 0.00 | 26 | 1017.2 |
| 20260507171503 | 13 | 293 | 3.2 | 8.0 | 0.00 | 0.00 | 0.00 | 26 | 1016.9 |
| 20260507171003 | 13 | 305 | 3.2 | 9.7 | 0.00 | 0.00 | 0.00 | 25 | 1016.8 |
| 20260507170503 | 13 | 292 | 3.2 | 9.7 | 0.00 | 0.00 | 0.00 | 24 | 1016.9 |
| 20260507170003 | 13 | 284 | 3.2 | 8.0 | 0.00 | 0.00 | 0.00 | 25 | 1016.8 |
| 20260507165503 | 13 | 289 | 3.2 | 6.4 | 0.00 | 0.00 | 0.00 | 25 | 1016.8 |
| 20260507164503 | 13 | 269 | 3.2 | 8.0 | 0.00 | 0.00 | 0.00 | 25 | 1016.8 |
| 20260507164213 | 13 | 297 | 3.2 | 8.0 | 0.00 | 0.00 | 0.00 | 25 | 1016.7 |
| 20260507163503 | 13 | 310 | 3.2 | 9.7 | 0.00 | 0.00 | 0.00 | 25 | 1016.7 |
| 20260507163003 | 13 | 301 | 4.8 | 9.7 | 0.00 | 0.00 | 0.00 | 25 | 1016.8 |
| 20260507162713 | 13 | 289 | 4.8 | 11.3 | 0.00 | 0.00 | 0.00 | 24 | 1016.8 |
| 20260507162003 | 13 | 276 | 6.4 | 12.9 | 0.00 | 0.00 | 0.00 | 25 | 1016.7 |
| 20260507161503 | 14 | 273 | 4.8 | 11.3 | 0.00 | 0.00 | 0.00 | 25 | 1016.7 |
| 20260507161003 | 14 | 279 | 4.8 | 17.7 | 0.00 | 0.00 | 0.00 | 25 | 1016.6 |
| 20260507160503 | 14 | 283 | 6.4 | 17.7 | 0.00 | 0.00 | 0.00 | 24 | 1016.6 |
| 20260507160004 | 14 | 283 | 4.8 | 14.5 | 0.00 | 0.00 | 0.00 | 25 | 1016.6 |
| 20260507155503 | 14 | 297 | 3.2 | 14.5 | 0.00 | 0.00 | 0.00 | 25 | 1016.6 |
| 20260507155003 | 14 | 229 | 3.2 | 8.0 | 0.00 | 0.00 | 0.00 | 25 | 1016.7 |
| 20260507154503 | 14 | 94 | 3.2 | 11.3 | 0.00 | 0.00 | 0.00 | 24 | 1016.4 |
| 20260507154003 | 13 | 327 | 4.8 | 11.3 | 0.00 | 0.00 | 0.00 | 25 | 1016.5 |
| 20260507153504 | 14 | 309 | 3.2 | 9.7 | 0.00 | 0.00 | 0.00 | 24 | 1016.7 |
| 20260507153003 | 13 | 320 | 4.8 | 11.3 | 0.00 | 0.00 | 0.00 | 25 | 1016.6 |
| 20260507152503 | 13 | 297 | 6.4 | 17.7 | 0.00 | 0.00 | 0.00 | 25 | 1016.6 |
| 20260507152003 | 14 | 269 | 6.4 | 17.7 | 0.00 | 0.00 | 0.00 | 25 | 1016.4 |
| 20260507151504 | 13 | 211 | 6.4 | 11.3 | 0.00 | 0.00 | 0.00 | 25 | 1016.4 |
| 20260507151003 | 13 | 248 | 6.4 | 14.5 | 0.00 | 0.00 | 0.00 | 24 | 1016.4 |
| 20260507150503 | 13 | 269 | 4.8 | 14.5 | 0.00 | 0.00 | 0.00 | 24 | 1016.4 |
| 20260507150214 | 14 | 241 | 4.8 | 8.0 | 0.00 | 0.00 | 0.00 | 24 | 1016.4 |
| 20260507145503 | 14 | 231 | 4.8 | 9.7 | 0.00 | 0.00 | 0.00 | 25 | 1016.4 |
| 20260507145003 | 13 | 260 | 6.4 | 9.7 | 0.00 | 0.00 | 0.00 | 24 | 1016.2 |
| 20260507144504 | 14 | 257 | 6.4 | 16.1 | 0.00 | 0.00 | 0.00 | 24 | 1016.3 |
| 20260507144003 | 14 | 263 | 6.4 | 16.1 | 0.00 | 0.00 | 0.00 | 25 | 1016.4 |
| 20260507143503 | 14 | 257 | 6.4 | 14.5 | 0.00 | 0.00 | 0.00 | 25 | 1016.2 |
| 20260507143003 | 14 | 238 | 3.2 | 9.7 | 0.00 | 0.00 | 0.00 | 23 | 1016.3 |
| 20260507142713 | 15 | 225 | 4.8 | 9.7 | 0.00 | 0.00 | 0.00 | 25 | 1016.3 |
| 20260507142003 | 14 | 268 | 4.8 | 9.7 | 0.00 | 0.00 | 0.00 | 25 | 1016.2 |
| 20260507141503 | 14 | 316 | 3.2 | 9.7 | 0.00 | 0.00 | 0.00 | 24 | 1016.3 |
| 20260507141003 | 14 | 254 | 3.2 | 9.7 | 0.00 | 0.00 | 0.00 | 25 | 1016.3 |
| 20260507140503 | 14 | 270 | 4.8 | 14.5 | 0.00 | 0.00 | 0.00 | 24 | 1016.5 |
| 20260507140003 | 13 | 309 | 6.4 | 14.5 | 0.00 | 0.00 | 0.00 | 25 | 1016.4 |
| 20260507135712 | 13 | 319 | 8.0 | 14.5 | 0.00 | 0.00 | 0.00 | 25 | 1016.4 |
| 20260507135003 | 13 | 301 | 6.4 | 14.5 | 0.00 | 0.00 | 0.00 | 26 | 1016.5 |
| 20260507134503 | 13 | 294 | 6.4 | 14.5 | 0.00 | 0.00 | 0.00 | 23 | 1016.3 |
| 20260507134003 | 13 | 276 | 4.8 | 12.9 | 0.00 | 0.00 | 0.00 | 23 | 1016.2 |
| 20260507133503 | 13 | 257 | 4.8 | 11.3 | 0.00 | 0.00 | 0.00 | 23 | 1016.4 |
| 20260507133003 | 13 | 280 | 4.8 | 12.9 | 0.00 | 0.00 | 0.00 | 24 | 1016.3 |
| 20260507132503 | 13 | 281 | 6.4 | 14.5 | 0.00 | 0.00 | 0.00 | 23 | 1016.4 |
| 20260507132003 | 13 | 262 | 6.4 | 14.5 | 0.00 | 0.00 | 0.00 | 23 | 1016.3 |
| 20260507131503 | 13 | 232 | 4.8 | 11.3 | 0.00 | 0.00 | 0.00 | 23 | 1016.3 |
| 20260507131004 | 15 | 198 | 4.8 | 14.5 | 0.00 | 0.00 | 0.00 | 22 | 1016.1 |
| 20260507130503 | 14 | 199 | 4.8 | 14.5 | 0.00 | 0.00 | 0.00 | 23 | 1016.4 |
| 20260507130003 | 14 | 256 | 6.4 | 12.9 | 0.00 | 0.00 | 0.00 | 24 | 1016.2 |
| 20260507125714 | 13 | 270 | 4.8 | 12.9 | 0.00 | 0.00 | 0.00 | 25 | 1016.2 |
| 20260507125003 | 13 | 287 | 6.4 | 19.3 | 0.00 | 0.00 | 0.00 | 24 | 1016.2 |
| 20260507124503 | 13 | 291 | 4.8 | 19.3 | 0.00 | 0.00 | 0.00 | 25 | 1016.1 |
| 20260507124003 | 13 | 293 | 4.8 | 12.9 | 0.00 | 0.00 | 0.00 | 25 | 1016.0 |
| 20260507123714 | 13 | 295 | 4.8 | 12.9 | 0.00 | 0.00 | 0.00 | 25 | 1016.1 |
| 20260507123003 | 13 | 263 | 8.0 | 20.9 | 0.00 | 0.00 | 0.00 | 24 | 1016.3 |
| 20260507122503 | 13 | 263 | 8.0 | 20.9 | 0.00 | 0.00 | 0.00 | 24 | 1016.1 |
| 20260507122004 | 13 | 228 | 4.8 | 9.7 | 0.00 | 0.00 | 0.00 | 22 | 1016.0 |
| 20260507121714 | 13 | 264 | 4.8 | 14.5 | 0.00 | 0.00 | 0.00 | 24 | 1016.2 |
| 20260507121213 | 13 | 300 | 4.8 | 16.1 | 0.00 | 0.00 | 0.00 | 23 | 1016.2 |
| 20260507120503 | 12 | 318 | 6.4 | 16.1 | 0.00 | 0.00 | 0.00 | 23 | 1016.1 |
| 20260507120004 | 13 | 259 | 4.8 | 17.7 | 0.00 | 0.00 | 0.00 | 23 | 1016.1 |
| 20260507115503 | 13 | 214 | 6.4 | 17.7 | 0.00 | 0.00 | 0.00 | 22 | 1016.3 |
| 20260507115213 | 13 | 218 | 6.4 | 17.7 | 0.00 | 0.00 | 0.00 | 21 | 1016.3 |
| 20260507114503 | 13 | 247 | 4.8 | 12.9 | 0.00 | 0.00 | 0.00 | 21 | 1016.1 |
| 20260507114003 | 13 | 169 | 4.8 | 9.7 | 0.00 | 0.00 | 0.00 | 21 | 1016.1 |
| 20260507113503 | 13 | 211 | 4.8 | 9.7 | 0.00 | 0.00 | 0.00 | 21 | 1016.0 |
| 20260507113213 | 13 | 254 | 4.8 | 9.7 | 0.00 | 0.00 | 0.00 | 20 | 1016.0 |
| 20260507112503 | 12 | 295 | 6.4 | 14.5 | 0.00 | 0.00 | 0.00 | 21 | 1016.3 |
| 20260507112003 | 12 | 322 | 6.4 | 14.5 | 0.00 | 0.00 | 0.00 | 21 | 1016.4 |
| 20260507111714 | 12 | 310 | 6.4 | 11.3 | 0.00 | 0.00 | 0.00 | 24 | 1016.0 |
| 20260507111003 | 12 | 251 | 4.8 | 11.3 | 0.00 | 0.00 | 0.00 | 19 | 1016.3 |
| 20260507110503 | 12 | 290 | 3.2 | 11.3 | 0.00 | 0.00 | 0.00 | 23 | 1016.1 |
| 20260507110003 | 12 | 338 | 4.8 | 11.3 | 0.00 | 0.00 | 0.00 | 23 | 1016.1 |
| 20260507105713 | 12 | 358 | 3.2 | 12.9 | 0.00 | 0.00 | 0.00 | 25 | 1016.1 |
| 20260507105212 | 12 | 344 | 4.8 | 17.7 | 0.00 | 0.00 | 0.00 | 24 | 1016.1 |
| 20260507104503 | 12 | 2 | 6.4 | 17.7 | 0.00 | 0.00 | 0.00 | 25 | 1016.1 |
| 20260507104003 | 12 | 338 | 4.8 | 14.5 | 0.00 | 0.00 | 0.00 | 24 | 1016.1 |
| 20260507103503 | 12 | 320 | 3.2 | 14.5 | 0.00 | 0.00 | 0.00 | 26 | 1016.1 |
| 20260507103212 | 12 | 324 | 3.2 | 17.7 | 0.00 | 0.00 | 0.00 | 26 | 1015.9 |
| 20260507102713 | 11 | 341 | 6.4 | 17.7 | 0.00 | 0.00 | 0.00 | 27 | 1016.1 |
| 20260507102003 | 11 | 312 | 6.4 | 17.7 | 0.00 | 0.00 | 0.00 | 24 | 1016.1 |
| 20260507101713 | 11 | 318 | 4.8 | 12.9 | 0.00 | 0.00 | 0.00 | 25 | 1016.0 |
| 20260507101003 | 12 | 284 | 3.2 | 12.9 | 0.00 | 0.00 | 0.00 | 27 | 1016.0 |
| 20260507100503 | 11 | 264 | 4.8 | 12.9 | 0.00 | 0.00 | 0.00 | 30 | 1015.8 |
| 20260507100004 | 11 | 274 | 4.8 | 12.9 | 0.00 | 0.00 | 0.00 | 27 | 1015.9 |
| 20260507095503 | 11 | 286 | 4.8 | 14.5 | 0.00 | 0.00 | 0.00 | 30 | 1015.9 |
| 20260507095003 | 11 | 324 | 6.4 | 14.5 | 0.00 | 0.00 | 0.00 | 31 | 1015.8 |
| 20260507094503 | 11 | 317 | 6.4 | 14.5 | 0.00 | 0.00 | 0.00 | 28 | 1015.9 |
| 20260507094003 | 11 | 268 | 4.8 | 9.7 | 0.00 | 0.00 | 0.00 | 33 | 1015.7 |
| 20260507093504 | 11 | 284 | 4.8 | 11.3 | 0.00 | 0.00 | 0.00 | 34 | 1015.7 |
| 20260507093214 | 11 | 290 | 3.2 | 11.3 | 0.00 | 0.00 | 0.00 | 34 | 1015.8 |
| 20260507092503 | 10 | 266 | 4.8 | 11.3 | 0.00 | 0.00 | 0.00 | 35 | 1015.7 |
| 20260507092003 | 11 | 263 | 4.8 | 12.9 | 0.00 | 0.00 | 0.00 | 35 | 1015.8 |
| 20260507091713 | 10 | 261 | 4.8 | 12.9 | 0.00 | 0.00 | 0.00 | 38 | 1015.7 |
| 20260507091003 | 10 | 264 | 4.8 | 11.3 | 0.00 | 0.00 | 0.00 | 37 | 1015.9 |
| 20260507090503 | 10 | 258 | 4.8 | 12.9 | 0.00 | 0.00 | 0.00 | 37 | 1016.0 |
| 20260507090004 | 10 | 288 | 4.8 | 12.9 | 0.00 | 0.00 | 0.00 | 37 | 1015.8 |
| 20260507085503 | 10 | 308 | 4.8 | 11.3 | 0.00 | 0.00 | 0.00 | 37 | 1015.7 |
| 20260507085003 | 9 | 280 | 6.4 | 11.3 | 0.00 | 0.00 | 0.00 | 35 | 1016.0 |
| 20260507084503 | 10 | 300 | 6.4 | 14.5 | 0.00 | 0.00 | 0.00 | 37 | 1016.0 |
| 20260507084003 | 9 | 312 | 6.4 | 14.5 | 0.00 | 0.00 | 0.00 | 39 | 1015.8 |
| 20260507083503 | 8 | 314 | 6.4 | 14.5 | 0.00 | 0.00 | 0.00 | 37 | 1016.0 |
| 20260507083003 | 9 | 348 | 8.0 | 16.1 | 0.00 | 0.00 | 0.00 | 37 | 1015.8 |
| 20260507082503 | 9 | 339 | 8.0 | 16.1 | 0.00 | 0.00 | 0.00 | 35 | 1015.7 |
| 20260507082004 | 8 | 297 | 4.8 | 16.1 | 0.00 | 0.00 | 0.00 | 37 | 1015.7 |
| 20260507081712 | 8 | 298 | 6.4 | 16.1 | 0.00 | 0.00 | 0.00 | 39 | 1015.8 |
| 20260507081213 | 8 | 331 | 4.8 | 12.9 | 0.00 | 0.00 | 0.00 | 41 | 1015.3 |
| 20260507080503 | 8 | 7 | 4.8 | 12.9 | 0.00 | 0.00 | 0.00 | 40 | 1015.5 |
| 20260507080213 | 8 | 349 | 4.8 | 12.9 | 0.00 | 0.00 | 0.00 | 39 | 1015.3 |
| 20260507075503 | 8 | 13 | 4.8 | 12.9 | 0.00 | 0.00 | 0.00 | 39 | 1015.5 |
| 20260507075004 | 8 | 346 | 4.8 | 9.7 | 0.00 | 0.00 | 0.00 | 40 | 1015.6 |
| 20260507074503 | 8 | 333 | 4.8 | 9.7 | 0.00 | 0.00 | 0.00 | 44 | 1015.2 |
| 20260507074003 | 8 | 2 | 4.8 | 9.7 | 0.00 | 0.00 | 0.00 | 45 | 1015.3 |
| 20260507073714 | 8 | 4 | 4.8 | 9.7 | 0.00 | 0.00 | 0.00 | 44 | 1015.1 |
| 20260507073003 | 8 | 270 | 3.2 | 6.4 | 0.00 | 0.00 | 0.00 | 47 | 1015.2 |
| 20260507072503 | 8 | 214 | 3.2 | 8.0 | 0.00 | 0.00 | 0.00 | 48 | 1015.2 |
| 20260507072003 | 8 | 196 | 3.2 | 8.0 | 0.00 | 0.00 | 0.00 | 50 | 1015.2 |
| 20260507071503 | 8 | 203 | 3.2 | 8.0 | 0.00 | 0.00 | 0.00 | 50 | 1015.5 |
| 20260507071213 | 7 | 192 | 3.2 | 9.7 | 0.00 | 0.00 | 0.00 | 53 | 1015.5 |
| 20260507070503 | 7 | 138 | 4.8 | 12.9 | 0.00 | 0.00 | 0.00 | 56 | 1015.2 |
| 20260507070006 | 7 | 203 | 3.2 | 12.9 | 0.00 | 0.00 | 0.00 | 54 | 1015.2 |
| 20260507065503 | 6 | 225 | 3.2 | 8.0 | 0.00 | 0.00 | 0.00 | 57 | 1015.2 |
| 20260507065003 | 6 | 167 | 4.8 | 9.7 | 0.00 | 0.00 | 0.00 | 58 | 1015.2 |
| 20260507064503 | 6 | 161 | 4.8 | 9.7 | 0.00 | 0.00 | 0.00 | 59 | 1015.3 |
| 20260507064004 | 6 | 158 | 4.8 | 9.7 | 0.00 | 0.00 | 0.00 | 61 | 1015.0 |
| 20260507063503 | 6 | 143 | 4.8 | 9.7 | 0.00 | 0.00 | 0.00 | 62 | 1015.1 |
| 20260507063003 | 5 | 139 | 4.8 | 9.7 | 0.00 | 0.00 | 0.00 | 64 | 1015.0 |
| 20260507062503 | 5 | 131 | 4.8 | 9.7 | 0.00 | 0.00 | 0.00 | 65 | 1015.0 |
| 20260507062003 | 5 | 139 | 4.8 | 9.7 | 0.00 | 0.00 | 0.00 | 67 | 1015.2 |
| 20260507061503 | 5 | 155 | 4.8 | 8.0 | 0.00 | 0.00 | 0.00 | 69 | 1015.1 |
| 20260507061003 | 5 | 162 | 4.8 | 9.7 | 0.00 | 0.00 | 0.00 | 69 | 1015.0 |
| 20260507060503 | 5 | 165 | 3.2 | 9.7 | 0.00 | 0.00 | 0.00 | 69 | 1014.9 |
| 20260507060003 | 5 | 178 | 1.6 | 4.8 | 0.00 | 0.00 | 0.00 | 70 | 1014.9 |
| 20260507055503 | 5 | 184 | 1.6 | 4.8 | 0.00 | 0.00 | 0.00 | 71 | 1015.2 |
| 20260507055003 | 4 | 169 | 1.6 | 4.8 | 0.00 | 0.00 | 0.00 | 72 | 1014.9 |
| 20260507054504 | 4 | 136 | 1.6 | 4.8 | 0.00 | 0.00 | 0.00 | 75 | 1015.0 |
| 20260507054212 | 4 | 124 | 1.6 | 4.8 | 0.00 | 0.00 | 0.00 | 76 | 1014.6 |
| 20260507053713 | 3 | 141 | 3.2 | 6.4 | 0.00 | 0.00 | 0.00 | 78 | 1014.8 |
| 20260507053004 | 3 | 138 | 3.2 | 6.4 | 0.00 | 0.00 | 0.00 | 79 | 1014.8 |
| 20260507052503 | 3 | 139 | 3.2 | 6.4 | 0.00 | 0.00 | 0.00 | 80 | 1014.8 |
| 20260507052212 | 3 | 145 | 1.6 | 4.8 | 0.00 | 0.00 | 0.00 | 81 | 1014.7 |
| 20260507051503 | 2 | 110 | 0.0 | 3.2 | 0.00 | 0.00 | 0.00 | 83 | 1014.7 |
| 20260507051003 | 1 | 87 | 1.6 | 3.2 | 0.00 | 0.00 | 0.00 | 80 | 1014.7 |
| 20260507050713 | 1 | 85 | 1.6 | 3.2 | 0.00 | 0.00 | 0.00 | 79 | 1014.8 |
| 20260507050214 | 1 | 79 | 1.6 | 3.2 | 0.00 | 0.00 | 0.00 | 77 | 1014.7 |
| 20260507045713 | 1 | 48 | 1.6 | 3.2 | 0.00 | 0.00 | 0.00 | 80 | 1014.8 |
| 20260507045003 | 0 | 45 | 1.6 | 3.2 | 0.00 | 0.00 | 0.00 | 81 | 1014.7 |
| 20260507044503 | 0 | 57 | 0.0 | 3.2 | 0.00 | 0.00 | 0.00 | 81 | 1014.5 |
| 20260507044004 | 0 | 56 | 0.0 | 3.2 | 0.00 | 0.00 | 0.00 | 84 | 1014.5 |
| 20260507043503 | 0 | 55 | 1.6 | 3.2 | 0.00 | 0.00 | 0.00 | 81 | 1014.5 |
| 20260507043214 | 0 | 54 | 1.6 | 3.2 | 0.00 | 0.00 | 0.00 | 83 | 1014.4 |
| 20260507042503 | 0 | 33 | 1.6 | 4.8 | 0.00 | 0.00 | 0.00 | 81 | 1014.5 |
| 20260507042214 | 0 | 30 | 1.6 | 4.8 | 0.00 | 0.00 | 0.00 | 82 | 1014.7 |
| 20260507041503 | 0 | 32 | 1.6 | 4.8 | 0.00 | 0.00 | 0.00 | 83 | 1014.5 |
| 20260507041003 | 0 | 47 | 1.6 | 4.8 | 0.00 | 0.00 | 0.00 | 81 | 1014.5 |
| 20260507040503 | 0 | 42 | 0.0 | 3.2 | 0.00 | 0.00 | 0.00 | 81 | 1014.6 |
| 20260507040003 | 0 | 19 | 0.0 | 3.2 | 0.00 | 0.00 | 0.00 | 82 | 1014.5 |
| 20260507035713 | 0 | 36 | 0.0 | 3.2 | 0.00 | 0.00 | 0.00 | 84 | 1014.5 |
| 20260507035003 | -1 | 42 | 1.6 | 3.2 | 0.00 | 0.00 | 0.00 | 85 | 1014.4 |
| 20260507034503 | -1 | 37 | 1.6 | 3.2 | 0.00 | 0.00 | 0.00 | 83 | 1014.3 |
| 20260507034003 | -1 | 48 | 0.0 | 3.2 | 0.00 | 0.00 | 0.00 | 88 | 1014.3 |
| 20260507033503 | -2 | 55 | 1.6 | 3.2 | 0.00 | 0.00 | 0.00 | 92 | 1014.3 |
| 20260507033003 | -1 | 50 | 1.6 | 3.2 | 0.00 | 0.00 | 0.00 | 86 | 1014.2 |
| 20260507032503 | -1 | 53 | 0.0 | 3.2 | 0.00 | 0.00 | 0.00 | 89 | 1014.3 |
| 20260507032003 | -1 | 42 | 1.6 | 3.2 | 0.00 | 0.00 | 0.00 | 86 | 1014.2 |
| 20260507031503 | -1 | 37 | 1.6 | 3.2 | 0.00 | 0.00 | 0.00 | 87 | 1014.1 |
| 20260507031003 | -1 | 39 | 1.6 | 3.2 | 0.00 | 0.00 | 0.00 | 87 | 1014.1 |
| 20260507030503 | -1 | 34 | 1.6 | 4.8 | 0.00 | 0.00 | 0.00 | 86 | 1014.1 |
| 20260507030003 | -1 | 30 | 3.2 | 4.8 | 0.00 | 0.00 | 0.00 | 85 | 1014.1 |
| 20260507025712 | -1 | 29 | 1.6 | 4.8 | 0.00 | 0.00 | 0.00 | 85 | 1014.0 |
| 20260507025003 | -1 | 45 | 1.6 | 4.8 | 0.00 | 0.00 | 0.00 | 88 | 1013.9 |
| 20260507024503 | -1 | 41 | 1.6 | 4.8 | 0.00 | 0.00 | 0.00 | 86 | 1014.1 |
| 20260507024003 | -1 | 32 | 1.6 | 4.8 | 0.00 | 0.00 | 0.00 | 87 | 1013.8 |
| 20260507023503 | -1 | 37 | 1.6 | 3.2 | 0.00 | 0.00 | 0.00 | 87 | 1014.0 |
| 20260507023003 | -1 | 37 | 1.6 | 3.2 | 0.00 | 0.00 | 0.00 | 87 | 1013.9 |
| 20260507022503 | -1 | 32 | 1.6 | 3.2 | 0.00 | 0.00 | 0.00 | 86 | 1014.0 |
| 20260507022003 | -1 | 39 | 1.6 | 3.2 | 0.00 | 0.00 | 0.00 | 85 | 1013.8 |
| 20260507021503 | -1 | 35 | 0.0 | 3.2 | 0.00 | 0.00 | 0.00 | 87 | 1013.9 |
| 20260507021003 | -1 | 25 | 1.6 | 3.2 | 0.00 | 0.00 | 0.00 | 86 | 1014.0 |
| 20260507020503 | -1 | 42 | 1.6 | 3.2 | 0.00 | 0.00 | 0.00 | 86 | 1013.7 |
| 20260507020003 | -1 | 51 | 1.6 | 3.2 | 0.00 | 0.00 | 0.00 | 87 | 1013.8 |
| 20260507015503 | -1 | 34 | 1.6 | 4.8 | 0.00 | 0.00 | 0.00 | 85 | 1013.9 |
| 20260507015003 | 0 | 26 | 3.2 | 4.8 | 0.00 | 0.00 | 0.00 | 84 | 1013.9 |
| 20260507014503 | 0 | 26 | 1.6 | 3.2 | 0.00 | 0.00 | 0.00 | 86 | 1013.6 |
| 20260507014003 | 0 | 30 | 3.2 | 3.2 | 0.00 | 0.00 | 0.00 | 85 | 1013.6 |
| 20260507013503 | 0 | 26 | 1.6 | 3.2 | 0.00 | 0.00 | 0.00 | 84 | 1013.6 |
| 20260507013004 | 0 | 46 | 0.0 | 3.2 | 0.00 | 0.00 | 0.00 | 83 | 1013.6 |
| 20260507012503 | 0 | 150 | 0.0 | 1.6 | 0.00 | 0.00 | 0.00 | 85 | 1013.7 |
| 20260507012003 | -1 | 62 | 0.0 | 3.2 | 0.00 | 0.00 | 0.00 | 87 | 1013.5 |
| 20260507011503 | 0 | 46 | 1.6 | 3.2 | 0.00 | 0.00 | 0.00 | 86 | 1013.4 |
| 20260507011003 | 0 | 35 | 1.6 | 3.2 | 0.00 | 0.00 | 0.00 | 84 | 1013.6 |
| 20260507010503 | 0 | 36 | 1.6 | 3.2 | 0.00 | 0.00 | 0.00 | 84 | 1013.5 |
| 20260507010003 | 0 | 44 | 1.6 | 3.2 | 0.00 | 0.00 | 0.00 | 86 | 1013.4 |
| 20260507005503 | 0 | 53 | 0.0 | 3.2 | 0.00 | 0.00 | 0.00 | 84 | 1013.5 |
| 20260507005003 | 0 | 28 | 0.0 | 3.2 | 0.00 | 0.00 | 0.00 | 83 | 1013.2 |
| 20260507004503 | 0 | 6 | 1.6 | 4.8 | 0.00 | 0.00 | 0.00 | 85 | 1013.2 |
| 20260507004003 | 0 | 23 | 1.6 | 4.8 | 0.00 | 0.00 | 0.00 | 83 | 1013.4 |
| 20260507003503 | 0 | 39 | 1.6 | 3.2 | 0.00 | 0.00 | 0.00 | 83 | 1013.3 |
| 20260507003212 | 0 | 37 | 1.6 | 4.8 | 0.00 | 0.00 | 0.00 | 83 | 1013.4 |
| 20260507002503 | 0 | 39 | 1.6 | 4.8 | 0.00 | 0.00 | 0.00 | 82 | 1013.3 |
| 20260507002003 | 0 | 33 | 1.6 | 4.8 | 0.00 | 0.00 | 0.00 | 82 | 1013.4 |
| 20260507001503 | 0 | 45 | 1.6 | 4.8 | 0.00 | 0.00 | 0.00 | 82 | 1013.3 |
| 20260507001004 | 0 | 43 | 1.6 | 4.8 | 0.00 | 0.00 | 0.00 | 81 | 1013.2 |
| 20260507000503 | 0 | 41 | 1.6 | 4.8 | 0.00 | 0.00 | 0.00 | 81 | 1013.4 |
| 20260507000003 | 0 | 57 | 1.6 | 3.2 | 0.00 | 0.00 | 0.00 | 79 | 1013.2 |
| 20260506235713 | 1 | 46 | 1.6 | 3.2 | 0.00 | 0.00 | 0.00 | 79 | 1013.2 |
| 20260506235003 | 0 | 20 | 0.0 | 3.2 | 0.00 | 0.00 | 0.00 | 81 | 1013.2 |
| 20260506234503 | 0 | 48 | 1.6 | 4.8 | 0.00 | 0.00 | 0.00 | 84 | 1013.0 |
| 20260506234212 | 1 | 52 | 1.6 | 4.8 | 0.00 | 0.00 | 0.00 | 78 | 1013.0 |
| 20260506233713 | 1 | 56 | 1.6 | 4.8 | 0.00 | 0.00 | 0.00 | 77 | 1013.2 |
| 20260506233003 | 1 | 38 | 0.0 | 1.6 | 0.00 | 0.00 | 0.00 | 79 | 1013.2 |
| 20260506232503 | 1 | 21 | 0.0 | 3.2 | 0.00 | 0.00 | 0.00 | 77 | 1013.1 |
| 20260506232003 | 1 | 21 | 1.6 | 3.2 | 0.00 | 0.00 | 0.00 | 78 | 1012.8 |
| 20260506231503 | 1 | 25 | 1.6 | 3.2 | 0.00 | 0.00 | 0.00 | 77 | 1013.0 |
| 20260506231003 | 1 | 52 | 0.0 | 3.2 | 0.00 | 0.00 | 0.00 | 79 | 1012.9 |
| 20260506230503 | 1 | 60 | 1.6 | 3.2 | 0.00 | 0.00 | 0.00 | 77 | 1012.9 |
| 20260506230003 | 1 | 57 | 0.0 | 3.2 | 0.00 | 0.00 | 0.00 | 74 | 1013.0 |
| 20260506225503 | 1 | 43 | 1.6 | 4.8 | 0.00 | 0.00 | 0.00 | 76 | 1012.7 |
| 20260506225003 | 2 | 37 | 3.2 | 4.8 | 0.00 | 0.00 | 0.00 | 73 | 1012.7 |
| 20260506224503 | 2 | 34 | 1.6 | 4.8 | 0.00 | 0.00 | 0.00 | 72 | 1012.6 |
| 20260506224003 | 2 | 31 | 1.6 | 4.8 | 0.00 | 0.00 | 0.00 | 74 | 1012.6 |
| 20260506223503 | 2 | 25 | 3.2 | 4.8 | 0.00 | 0.00 | 0.00 | 74 | 1012.6 |
| 20260506223003 | 2 | 23 | 1.6 | 4.8 | 0.00 | 0.00 | 0.00 | 73 | 1012.6 |
| 20260506222713 | 2 | 21 | 1.6 | 4.8 | 0.00 | 0.00 | 0.00 | 73 | 1012.4 |
| 20260506222003 | 2 | 220 | 0.0 | 1.6 | 0.00 | 0.00 | 0.00 | 71 | 1012.5 |
| 20260506221504 | 3 | 189 | 0.0 | 3.2 | 0.00 | 0.00 | 0.00 | 70 | 1012.5 |